Total_Precipitation_Accumulation
0.99 1.02 0.93 1.07 1.13 1.13 1.14 1.13 1.03 0.97 0.95 0.83 0.81 0.81 0.74 0.59 0.59 0.64 0.82 0.74 0.89 1.21 1.27 1.13 1.02 0.89 0.80 0.75 0.86 0.97 1.06 1.02 1.12 1.25 1.24 1.30 1.34 1.26 1.33 1.32 1.43 1.65 1.52
0.88 1.05 0.99 0.98 1.05 1.23 1.29 1.22 1.12 1.12 1.10 0.94 0.90 0.96 0.88 0.78 0.75 0.75 0.87 0.75 0.58 0.70 1.02 1.18 1.18 1.10 0.95 0.88 0.90 1.04 1.18 1.09 1.05 1.14 1.22 1.28 1.36 1.24 1.25 1.36 1.36 1.57 1.62
0.82 0.99 0.95 0.86 0.84 1.00 1.18 1.31 1.33 1.27 1.13 1.03 0.98 0.98 0.89 0.85 0.83 0.94 0.94 0.89 0.71 0.52 0.67 0.92 1.10 1.17 1.12 1.11 1.06 1.08 1.16 1.09 1.11 1.19 1.24 1.19 1.25 1.31 1.34 1.44 1.40 1.50 1.56
0.61 0.81 0.88 0.79 0.80 0.96 1.17 1.35 1.45 1.47 1.33 1.28 1.26 1.14 0.99 0.94 0.91 0.97 1.00 1.01 1.00 0.80 0.68 0.63 0.76 0.97 1.10 1.18 1.25 1.19 1.12 1.04 1.02 1.12 1.13 1.06 1.07 1.13 1.22 1.35 1.44 1.51 1.51
0.53 0.74 0.91 0.96 0.96 1.06 1.17 1.23 1.42 1.49 1.55 1.45 1.32 1.20 1.08 1.05 0.98 0.91 1.02 1.04 1.06 1.01 0.88 0.60 0.51 0.60 0.78 1.00 1.16 1.21 1.22 1.05 0.94 0.97 0.91 0.86 0.91 0.99 1.11 1.10 1.27 1.34 1.34
0.65 0.84 1.07 1.16 1.27 1.30 1.34 1.49 1.76 1.77 1.64 1.59 1.46 1.27 1.10 1.07 1.07 1.04 1.01 1.05 1.13 1.04 0.92 0.77 0.64 0.44 0.49 0.71 0.98 1.14 1.22 1.17 1.07 1.03 0.91 0.80 0.78 0.91 1.04 1.00 1.08 1.11 1.13
0.80 1.01 1.22 1.45 1.58 1.47 1.47 1.65 1.91 2.06 1.90 1.72 1.73 1.62 1.44 1.22 1.15 1.13 1.07 1.14 1.20 1.18 1.09 1.05 0.92 0.76 0.60 0.52 0.60 0.83 1.06 1.18 1.18 1.16 1.11 1.01 0.90 0.89 0.94 0.84 0.81 0.88 0.99
0.90 0.96 1.16 1.36 1.44 1.48 1.51 1.61 1.80 2.11 2.02 1.82 1.92 2.22 2.02 1.73 1.29 1.06 1.16 1.22 1.29 1.26 1.15 1.04 1.02 0.93 0.84 0.79 0.47 0.44 0.64 0.97 1.23 1.20 1.22 1.20 1.13 0.96 0.92 0.82 0.77 0.78 0.84
1.19 1.17 1.20 1.34 1.42 1.54 1.57 1.60 1.65 1.88 2.00 1.92 1.94 2.39 2.25 2.02 1.86 1.40 1.12 1.18 1.31 1.38 1.33 1.26 1.16 1.07 0.98 0.97 0.80 0.45 0.39 0.57 0.99 1.21 1.31 1.34 1.24 1.07 0.97 0.89 0.85 0.81 0.84
1.50 1.48 1.49 1.57 1.52 1.50 1.48 1.49 1.50 1.66 1.96 2.02 1.93 1.86 1.83 1.85 2.12 1.86 1.35 1.20 1.24 1.26 1.34 1.29 1.28 1.26 1.24 1.14 1.00 0.70 0.43 0.43 0.72 1.18 1.49 1.48 1.31 1.15 1.03 1.02 0.95 0.93 0.91
2.08 2.00 1.93 1.79 1.61 1.52 1.54 1.57 1.57 1.64 1.73 1.84 1.83 1.76 1.76 1.70 1.56 1.71 1.67 1.43 1.25 1.14 1.22 1.31 1.33 1.33 1.39 1.37 1.23 0.92 0.61 0.43 0.54 0.94 1.36 1.56 1.56 1.37 1.19 1.11 1.04 1.01 0.91
2.04 1.98 1.85 1.63 1.46 1.40 1.46 1.58 1.60 1.63 1.62 1.68 1.66 1.59 1.59 1.57 1.47 1.60 1.55 1.56 1.55 1.20 1.08 1.13 1.21 1.25 1.24 1.36 1.26 1.29 0.94 0.62 0.51 0.68 0.94 1.25 1.54 1.66 1.53 1.39 1.20 1.11 0.99
1.42 1.46 1.46 1.43 1.37 1.31 1.38 1.55 1.63 1.66 1.67 1.64 1.58 1.52 1.56 1.45 1.52 1.71 1.71 1.61 1.56 1.26 1.05 0.93 0.98 1.04 1.04 1.20 1.32 1.47 1.19 0.90 0.65 0.58 0.66 0.83 1.04 1.36 1.63 1.73 1.66 1.48 1.37
1.24 1.25 1.32 1.34 1.32 1.32 1.34 1.41 1.51 1.63 1.66 1.59 1.56 1.64 1.60 1.44 1.52 1.55 1.55 1.72 1.60 1.38 1.14 0.86 0.79 0.81 0.93 1.02 1.20 1.43 1.04 0.96 0.79 0.64 0.58 0.62 0.74 0.85 1.07 1.39 1.70 1.78 1.77
0.94 1.05 1.15 1.22 1.17 1.18 1.22 1.31 1.44 1.49 1.58 1.66 1.66 1.66 1.66 1.58 1.57 1.57 1.66 1.72 1.72 1.50 1.22 0.97 0.81 0.71 0.82 0.88 1.12 1.09 0.94 0.96 0.87 0.73 0.64 0.58 0.61 0.65 0.76 0.88 1.05 1.20 1.35
0.83 0.90 0.88 0.84 0.81 0.87 0.89 0.99 1.17 1.26 1.30 1.38 1.41 1.46 1.50 1.51 1.56 1.56 1.63 1.70 1.67 1.57 1.39 1.15 0.97 0.87 0.92 0.87 0.99 0.95 1.00 1.14 0.96 0.81 0.70 0.63 0.60 0.61 0.61 0.61 0.65 0.68 0.71
0.52 0.61 0.56 0.53 0.58 0.62 0.60 0.68 0.79 0.91 1.00 1.04 1.06 1.11 1.18 1.24 1.33 1.39 1.50 1.57 1.61 1.56 1.32 1.18 1.05 0.98 1.01 1.02 1.02 0.97 1.03 1.06 0.95 0.87 0.75 0.65 0.63 0.60 0.61 0.61 0.62 0.58 0.57
0.22 0.29 0.32 0.33 0.40 0.51 0.53 0.60 0.64 0.66 0.72 0.76 0.82 0.88 0.93 0.99 1.10 1.18 1.25 1.35 1.48 1.51 1.41 1.26 1.14 1.04 0.94 0.97 1.12 1.17 1.16 1.10 1.08 1.15 1.05 0.89 0.79 0.71 0.65 0.65 0.67 0.65 0.62
0.16 0.20 0.23 0.26 0.30 0.39 0.51 0.57 0.59 0.55 0.54 0.52 0.53 0.59 0.67 0.75 0.90 0.99 1.03 1.12 1.27 1.32 1.40 1.30 1.23 1.16 1.01 0.94 1.10 1.13 1.21 1.36 1.26 1.35 1.50 1.31 1.05 0.87 0.76 0.75 0.77 0.76 0.71
0.16 0.15 0.14 0.16 0.24 0.35 0.43 0.51 0.55 0.52 0.49 0.49 0.50 0.50 0.53 0.55 0.64 0.74 0.87 1.06 1.23 1.36 1.41 1.35 1.30 1.26 1.18 1.08 1.15 1.25 1.33 1.41 1.45 1.32 1.36 1.34 1.28 1.16 0.98 0.87 0.89 0.91 0.88
0.12 0.08 0.06 0.08 0.16 0.22 0.26 0.40 0.46 0.45 0.48 0.45 0.47 0.51 0.53 0.49 0.50 0.54 0.55 0.73 0.96 1.19 1.31 1.38 1.38 1.39 1.32 1.26 1.19 1.29 1.36 1.50 1.60 1.60 1.51 1.36 1.32 1.19 1.08 0.99 0.94 0.95 0.99
0.09 0.07 0.05 0.05 0.07 0.08 0.14 0.21 0.30 0.40 0.47 0.50 0.51 0.55 0.53 0.49 0.53 0.51 0.49 0.52 0.63 0.78 0.97 1.10 1.19 1.24 1.28 1.37 1.48 1.48 1.46 1.54 1.62 1.62 1.50 1.52 1.48 1.36 1.20 1.03 1.02 1.04 1.05
0.04 0.04 0.04 0.04 0.04 0.04 0.05 0.08 0.18 0.34 0.48 0.49 0.48 0.62 0.69 0.63 0.62 0.65 0.66 0.60 0.54 0.53 0.69 0.87 0.99 1.04 1.12 1.23 1.48 1.52 1.50 1.53 1.45 1.51 1.37 1.44 1.41 1.29 1.21 1.17 1.17 1.10 1.11
0.02 0.03 0.05 0.07 0.05 0.02 0.03 0.04 0.09 0.24 0.39 0.43 0.44 0.56 0.82 0.86 0.75 0.71 0.75 0.85 0.77 0.61 0.61 0.66 0.81 0.92 0.97 1.14 1.47 1.69 1.63 1.43 1.37 1.43 1.35 1.36 1.32 1.21 1.15 1.13 1.18 1.09 1.07
0.03 0.03 0.04 0.06 0.05 0.04 0.04 0.05 0.09 0.19 0.29 0.33 0.38 0.50 0.67 0.82 0.75 0.71 0.71 0.78 0.82 0.73 0.66 0.68 0.65 0.72 0.85 1.02 1.28 1.55 1.66 1.59 1.44 1.39 1.26 1.18 1.21 1.22 1.25 1.20 1.14 1.13 1.06
0.03 0.03 0.03 0.03 0.03 0.03 0.04 0.06 0.07 0.13 0.17 0.17 0.24 0.41 0.56 0.55 0.52 0.59 0.70 0.81 0.90 0.74 0.65 0.74 0.73 0.75 0.78 0.96 1.28 1.49 1.61 1.58 1.47 1.43 1.33 1.24 1.23 1.26 1.44 1.40 1.22 1.16 1.10